Theta_e
318 318 319 318 317 317 318 320 324 323 321 321 317 319 318 319 319 317 319 318 318 319 317 318 323 329 326 325 330 330 330 335 336 335 340 335 331 333 331 329 329 330 332 333 333 332 331 332 334 334 334 331 325 324 322 318 316 313 312 310 309 308 315 319 321 325 321 319 323 325 327 329 330 330 330 330 330 330 329 326 322 320 318 316 315 313 311 310 310 310 310 310 310 310 310 310 311
317 318 318 317 316 318 321 322 329 328 322 318 318 320 316 317 317 320 323 319 321 320 318 319 323 327 323 323 325 325 329 332 328 329 334 331 333 333 331 330 329 331 331 332 333 333 333 334 335 333 334 331 324 323 321 318 316 313 313 311 309 309 313 315 317 321 319 321 324 324 325 327 329 329 328 329 329 327 323 320 317 316 314 314 312 310 309 310 310 311 311 310 310 310 311 311 311
317 318 318 317 317 320 322 323 328 329 322 319 324 323 316 317 320 323 320 318 322 321 321 321 323 324 322 324 323 325 329 328 326 330 332 331 333 332 333 331 329 331 331 332 333 333 334 335 335 332 333 331 324 323 321 318 317 314 313 312 310 308 310 311 315 318 319 324 325 325 324 324 328 329 328 325 324 322 318 315 313 313 312 311 310 310 310 311 312 314 314 311 311 310 311 311 311
317 318 317 316 319 323 328 331 330 328 322 321 324 322 323 323 323 322 315 319 324 321 320 321 324 323 324 328 326 327 327 326 328 331 331 331 332 332 332 331 329 329 331 333 332 334 334 334 334 331 333 332 324 322 321 318 318 315 313 313 311 309 309 309 312 315 319 324 325 326 328 328 329 329 328 323 321 320 316 313 311 310 309 310 311 312 312 313 315 317 316 312 310 310 311 311 311
317 317 316 316 321 325 328 327 325 325 320 323 322 320 329 330 323 318 315 322 323 317 319 323 328 326 326 327 326 327 328 329 331 331 330 331 331 331 331 331 329 328 331 332 332 334 334 334 333 331 334 332 324 322 321 319 318 316 313 313 312 310 309 308 312 315 318 325 325 325 328 329 328 327 327 324 319 315 313 310 308 308 308 311 314 315 315 316 319 321 319 312 311 310 311 311 311
316 316 317 318 320 320 323 318 319 324 321 324 323 320 328 324 317 315 315 322 321 316 319 323 326 327 327 327 328 328 330 333 332 331 330 330 331 331 331 331 329 328 330 331 332 333 333 334 332 332 334 331 324 322 321 319 319 318 314 312 313 312 311 309 311 313 316 323 324 324 325 325 327 328 326 322 317 311 309 308 307 308 311 314 315 317 318 320 322 322 320 315 314 311 310 311 311
315 318 320 321 320 318 326 325 325 327 318 316 320 323 324 316 314 315 316 318 318 316 318 321 323 325 328 328 329 329 332 334 332 331 331 331 331 331 331 330 330 328 328 330 331 332 333 333 333 333 333 329 323 322 321 319 319 318 315 312 313 313 313 312 311 310 312 317 319 321 324 324 325 327 323 320 322 315 309 308 307 311 316 317 316 319 321 322 323 323 321 319 317 312 311 312 312
315 319 320 324 324 322 329 325 325 325 315 311 314 320 319 314 314 314 316 316 316 316 318 322 322 324 327 326 327 329 331 333 332 332 331 331 331 331 330 330 329 328 329 331 332 332 332 332 332 333 332 327 323 323 321 320 318 318 316 313 313 313 312 312 312 312 311 313 316 318 320 321 320 321 318 321 327 320 312 309 307 314 320 320 318 320 322 324 325 324 324 322 318 313 312 313 313
316 320 319 322 326 327 328 320 318 319 317 316 314 316 315 315 315 314 315 314 314 317 319 322 321 320 324 324 326 328 329 332 333 332 331 332 332 331 329 330 330 329 330 331 332 331 331 331 331 332 330 326 323 323 322 321 318 318 317 314 313 313 313 312 312 312 311 313 316 316 315 316 315 315 315 321 326 320 314 311 308 314 319 318 317 319 322 323 325 325 325 323 318 314 313 313 314
318 322 318 323 329 323 321 318 318 319 317 316 314 316 316 315 315 313 315 314 314 318 321 322 320 318 322 325 326 327 329 332 332 332 332 332 332 330 329 330 330 330 330 330 331 331 331 331 331 330 329 325 324 323 322 321 318 318 318 314 313 313 313 313 313 312 312 311 312 314 313 313 313 313 312 317 320 316 313 311 308 310 313 314 313 315 317 318 319 320 321 319 314 312 312 312 314
319 320 317 325 331 321 320 320 322 326 320 315 314 315 316 316 315 313 313 314 314 318 319 320 319 319 323 325 326 326 328 331 332 333 333 332 332 330 329 330 330 330 330 330 330 331 332 331 330 328 326 325 323 323 323 322 319 318 318 315 313 314 313 313 313 312 312 312 311 312 311 311 312 312 311 312 313 312 310 310 309 308 309 310 310 311 311 312 313 312 311 310 309 309 310 311 313
318 321 329 334 328 321 324 323 322 331 328 321 317 315 317 315 314 314 313 314 314 316 317 319 319 320 326 327 325 325 328 332 333 334 334 332 332 329 329 330 330 330 330 330 330 331 331 330 328 326 325 324 324 324 323 322 320 319 319 317 315 315 314 313 312 312 312 312 313 312 312 311 311 311 311 311 311 311 309 309 309 307 308 308 308 309 309 309 309 308 308 309 310 311 311 311 312
319 321 334 330 320 321 323 320 320 326 327 323 317 314 317 314 314 315 313 314 314 316 316 318 319 319 327 327 323 324 327 331 333 336 335 333 332 330 330 330 330 331 331 331 331 331 330 330 328 326 326 325 324 324 323 323 321 319 320 320 318 317 315 314 313 313 313 313 314 313 312 311 310 309 309 310 310 309 308 308 308 307 307 307 308 308 307 307 308 309 311 312 313 313 313 312 312
320 320 329 324 315 321 322 319 319 321 324 323 316 313 317 315 315 314 314 316 314 315 316 317 319 319 323 323 320 322 324 329 333 336 336 334 333 331 330 331 331 331 332 332 331 331 330 330 328 327 327 326 325 324 324 323 322 321 321 321 320 319 317 316 315 314 314 315 315 315 313 311 310 309 308 307 307 307 307 307 307 306 307 307 306 306 307 309 311 312 313 314 314 314 314 313 313
321 318 328 328 317 319 319 318 321 322 325 322 315 314 316 315 314 314 315 318 315 315 315 317 320 320 320 321 319 318 321 327 331 334 335 336 333 331 331 331 332 331 332 333 332 331 330 330 329 328 328 326 325 325 325 324 323 322 321 321 320 320 319 318 318 317 316 315 316 316 315 313 310 308 307 307 306 306 306 306 306 306 306 305 306 308 311 312 314 314 315 315 315 315 314 314 313
321 318 327 328 317 319 317 315 319 322 322 316 313 314 315 314 314 314 315 316 315 315 317 318 320 320 318 319 319 317 320 324 328 332 334 335 334 332 332 332 333 332 332 333 332 332 331 331 330 329 329 328 326 325 325 324 324 323 322 322 321 321 321 321 320 319 317 316 316 316 316 315 313 310 308 307 306 306 306 306 305 305 305 306 309 312 313 315 316 317 317 317 316 316 315 314 313
318 322 330 324 317 321 318 317 319 321 323 314 311 313 314 314 313 314 316 315 315 315 316 318 319 319 317 318 319 317 318 322 326 330 332 334 334 332 333 333 333 333 332 333 332 332 332 331 330 330 329 329 328 326 326 325 325 324 323 322 322 322 322 322 321 320 319 318 318 318 317 316 315 313 310 309 308 307 306 306 306 306 307 309 312 314 316 318 319 319 319 319 319 319 318 316 314
320 331 332 321 320 322 320 321 316 317 322 314 311 313 314 315 313 313 315 315 315 315 315 316 317 318 317 318 319 317 316 319 323 327 331 333 333 333 333 332 333 333 332 333 332 332 332 331 331 330 329 329 329 327 326 326 325 325 324 323 323 323 322 322 322 322 321 320 320 320 319 318 317 316 314 312 310 309 309 309 309 310 311 312 314 316 318 320 320 320 320 320 320 320 319 318 316
321 328 326 326 330 321 315 317 312 313 317 313 312 312 312 315 313 313 316 315 315 316 316 315 316 317 317 318 320 318 316 317 320 324 328 331 333 332 332 332 332 332 332 332 332 332 331 331 331 330 330 329 329 328 327 327 326 325 325 324 324 324 323 323 323 322 322 322 321 321 321 320 318 317 317 315 313 312 312 312 312 313 314 315 317 318 320 320 321 321 320 321 321 321 320 319 318
317 320 322 330 328 316 312 313 312 313 313 312 312 312 312 314 314 314 315 314 313 315 316 315 316 316 316 318 319 318 317 317 318 321 324 327 330 331 330 329 329 330 331 331 332 332 331 331 331 331 330 330 330 329 328 328 327 327 326 325 325 325 324 324 323 323 323 323 322 322 322 322 320 318 319 318 316 315 314 315 315 316 316 317 318 319 320 320 320 321 321 321 321 321 321 319 318
315 319 325 323 315 314 314 313 313 313 313 313 312 312 312 313 314 314 313 315 315 315 315 316 316 316 316 317 318 317 317 318 318 320 321 323 326 328 328 327 327 328 329 331 332 331 330 330 330 330 331 331 330 330 329 329 329 328 327 327 326 326 325 325 324 324 324 324 323 323 323 323 323 322 321 319 319 318 317 317 317 318 318 318 319 319 320 320 320 320 321 321 321 322 321 320 319
316 315 317 313 310 315 315 312 314 313 313 313 312 313 313 313 314 313 314 318 319 315 315 316 316 316 316 316 317 317 317 318 319 319 319 320 321 323 325 326 327 328 329 329 329 329 329 329 330 330 330 331 331 331 330 330 329 329 329 328 328 327 327 326 325 325 325 325 324 324 324 324 323 324 323 321 319 319 320 319 319 319 319 319 319 320 320 320 320 320 321 321 322 322 322 321 319
318 315 311 311 312 314 314 313 314 313 314 313 312 313 313 313 313 313 313 317 317 314 315 315 315 316 315 315 316 317 317 317 318 317 317 318 318 319 320 323 324 326 326 326 325 327 328 328 329 330 330 330 331 331 331 331 330 330 330 330 329 328 328 328 327 326 326 326 325 325 325 325 324 324 325 323 320 320 321 320 320 320 320 320 320 320 320 320 321 320 321 321 322 322 322 321 320
320 318 311 312 313 312 313 313 313 313 314 313 313 313 312 313 314 312 312 315 315 314 314 314 315 315 315 316 316 316 316 316 316 316 316 317 317 318 319 320 322 324 324 323 323 324 325 327 328 329 329 329 330 331 331 331 331 331 331 331 330 329 329 329 329 328 327 327 326 326 326 326 325 325 325 324 322 321 321 321 321 321 320 321 321 321 321 321 321 321 321 321 321 322 322 322 321
318 318 312 312 313 312 313 313 313 312 313 313 313 312 312 312 312 311 313 315 315 314 314 314 315 315 315 315 315 316 316 316 316 316 317 317 319 320 321 321 321 322 322 321 322 323 323 324 326 328 328 328 329 330 331 331 331 331 331 331 331 330 330 330 330 329 329 328 328 327 327 327 327 326 325 325 324 323 323 323 322 322 321 321 321 321 321 321 321 321 322 322 322 322 322 322 321
314 314 312 312 312 312 312 313 313 313 313 313 313 313 312 312 312 313 314 314 314 314 313 314 316 315 315 315 315 315 315 315 316 316 317 318 319 320 320 320 320 320 319 320 321 321 322 323 324 326 327 328 329 329 329 330 330 330 330 330 331 331 331 331 331 330 330 330 329 329 328 327 327 327 327 326 325 325 325 325 324 323 323 322 322 322 322 322 322 322 322 322 322 322 322 322 321
313 312 312 312 312 313 313 313 313 313 313 313 315 315 313 311 313 316 316 314 314 315 314 314 316 316 315 315 315 315 315 315 315 316 316 317 318 317 317 318 318 318 318 318 318 319 321 322 322 323 325 327 328 329 328 328 329 329 329 330 330 331 331 331 331 331 331 331 330 330 329 328 328 328 328 327 326 326 326 326 326 325 324 323 323 323 323 322 322 322 322 322 322 322 322 322 321
312 313 313 312 311 313 313 313 312 313 313 312 314 313 312 312 314 316 315 314 315 315 315 315 315 316 315 315 315 315 316 315 315 316 316 316 316 316 316 317 316 316 317 316 316 318 319 319 321 321 323 324 326 327 327 327 327 328 329 329 330 330 330 331 331 331 330 331 331 330 330 329 329 329 329 328 328 327 327 326 326 326 326 325 324 323 323 323 322 322 322 322 322 322 322 322 322
312 314 316 315 315 315 312 312 312 313 314 313 312 313 314 315 315 316 314 314 315 314 315 315 315 315 315 316 315 315 316 316 316 316 316 315 315 316 316 316 316 316 316 316 317 317 317 317 318 319 320 322 323 324 325 325 325 325 327 327 328 329 330 330 329 329 330 330 330 330 330 330 329 329 329 329 329 328 328 327 327 327 327 326 325 325 324 323 323 323 322 322 322 322 322 322 322
314 313 315 319 318 316 311 310 313 313 313 312 310 313 320 319 313 313 313 313 314 314 315 315 315 315 315 315 315 315 315 315 316 316 316 316 316 316 316 316 316 316 316 316 317 316 316 316 317 318 318 319 320 321 322 323 323 323 324 325 325 326 327 329 329 328 328 329 330 330 330 329 330 329 329 329 329 329 329 328 328 327 327 327 327 326 325 324 324 323 322 322 322 322 322 322 322
316 311 316 321 315 316 314 309 312 313 313 312 310 313 321 319 311 311 313 313 314 314 315 315 315 315 315 315 315 315 315 315 316 316 316 316 316 316 315 316 316 316 316 315 316 316 316 316 316 317 317 317 317 318 319 320 321 321 322 323 323 323 324 325 327 328 327 326 328 329 330 329 329 329 329 329 330 330 329 329 328 327 327 327 327 326 326 325 324 324 323 322 322 321 322 322 322
319 311 320 321 312 319 318 308 309 314 313 311 311 315 320 317 311 312 313 313 314 314 314 314 314 315 314 315 315 315 315 315 315 315 316 316 316 316 316 316 315 316 316 315 316 316 316 316 316 316 316 316 316 317 318 319 320 320 320 320 322 322 322 323 324 326 327 326 326 327 328 329 329 329 329 329 329 329 328 328 328 327 326 326 326 326 325 325 324 323 323 323 322 322 322 321 322
322 315 319 319 315 319 318 311 308 310 313 312 311 315 320 318 312 312 313 313 313 313 314 314 314 314 314 314 315 315 315 315 315 315 316 316 316 316 316 316 315 315 315 315 316 315 316 316 315 316 316 316 316 316 317 318 319 319 319 319 320 321 322 322 322 323 325 325 325 325 326 328 329 330 330 329 329 328 328 327 327 326 325 324 325 325 325 325 324 323 323 323 322 322 321 321 322
319 317 318 318 317 316 316 316 310 308 313 314 313 314 319 318 312 313 314 312 313 313 315 315 315 315 315 315 315 315 315 315 316 316 316 316 315 316 316 316 315 315 315 315 315 315 315 316 316 315 315 315 316 316 316 316 318 319 319 319 319 320 320 320 321 322 323 323 324 325 326 327 328 329 329 329 328 327 327 326 325 325 324 323 324 324 324 324 324 323 323 322 322 321 321 321 321
318 318 317 315 315 313 315 319 313 310 314 315 316 316 318 320 313 313 314 312 313 314 314 315 316 316 316 316 315 315 316 316 316 316 316 316 316 316 316 316 316 316 316 315 315 315 315 315 315 315 315 315 315 315 316 316 317 318 319 320 320 320 320 320 321 320 320 321 322 324 326 326 326 327 327 327 327 326 326 326 326 326 326 325 325 325 325 324 324 323 323 323 322 322 321 321 321
320 320 320 321 321 317 317 318 311 310 316 317 318 318 318 320 316 313 314 312 311 313 315 315 315 316 316 316 316 316 316 316 317 317 317 316 316 316 316 316 316 316 316 316 316 315 315 315 315 315 315 315 315 315 315 316 317 317 318 319 320 319 320 322 322 322 322 321 320 321 322 322 323 323 324 324 324 324 324 326 328 329 329 329 327 327 327 327 326 325 325 324 323 322 322 321 321
318 319 322 323 321 319 316 316 311 307 314 319 318 320 318 318 317 312 312 312 310 312 314 315 316 316 316 316 316 316 316 316 317 316 316 316 316 316 316 316 316 317 316 316 316 316 316 316 316 316 315 316 316 315 315 316 316 316 317 317 318 318 319 320 321 323 323 323 322 321 319 319 320 321 324 326 325 325 325 324 325 328 327 326 327 326 325 326 325 325 325 324 323 322 321 322 322
318 318 322 320 319 320 315 314 314 308 313 319 316 319 319 318 318 312 310 311 311 312 312 313 315 315 315 315 315 315 315 315 315 315 315 315 315 314 315 315 315 316 316 316 317 316 317 317 316 317 316 316 316 316 316 316 315 315 316 316 317 317 318 320 320 320 321 321 322 321 320 322 324 324 325 326 326 327 328 324 323 324 324 324 326 327 326 327 326 326 326 324 323 323 322 322 322
322 319 321 321 318 319 315 314 315 311 314 320 319 320 319 316 318 312 308 310 311 311 311 312 313 313 314 314 314 314 314 314 314 314 315 314 314 314 314 314 315 315 316 316 316 317 317 317 317 317 316 316 316 316 316 316 316 316 316 316 317 319 319 320 321 321 322 321 321 321 321 324 328 328 327 328 328 327 326 324 324 327 326 323 324 326 326 327 327 325 324 323 324 324 323 322 322
322 322 322 321 317 319 319 316 315 312 312 317 319 318 317 316 320 316 307 305 309 310 311 311 311 312 312 313 313 313 313 314 315 314 315 315 315 315 314 314 314 314 315 315 316 316 317 317 317 317 317 317 317 316 317 316 317 317 317 318 318 320 321 321 322 323 322 322 321 321 321 324 327 328 327 329 330 328 325 324 325 328 327 323 324 326 326 326 324 322 322 323 323 323 323 322 322
319 327 330 324 321 321 318 315 316 315 312 313 315 316 322 324 326 324 310 304 307 308 309 311 311 311 311 312 312 312 313 314 315 315 315 316 315 315 315 315 315 314 314 315 315 316 316 316 317 317 317 317 316 316 317 317 317 317 318 319 320 321 321 321 322 321 320 320 320 320 320 322 324 324 325 326 327 327 326 324 324 325 324 324 326 328 327 324 323 323 325 326 325 323 322 323 323
316 325 329 325 328 326 319 317 319 320 316 311 311 316 330 333 328 327 317 311 313 308 306 310 313 313 313 314 313 313 314 313 314 315 316 317 317 316 316 316 315 315 315 315 315 315 316 316 316 316 316 316 316 316 316 317 317 318 318 319 319 319 320 319 319 318 318 319 319 320 320 321 322 322 324 325 325 325 324 324 324 324 324 325 326 326 323 321 321 323 326 327 326 324 321 321 322
317 318 319 321 329 327 322 320 317 319 315 308 310 315 323 327 324 324 318 316 321 312 305 309 314 315 314 314 314 314 314 314 315 317 317 317 317 317 317 316 316 316 316 316 315 315 315 316 316 316 316 316 316 316 316 317 317 318 318 319 319 319 319 318 318 319 319 320 321 321 321 322 322 322 323 323 324 324 324 324 325 325 325 325 324 323 321 322 324 326 327 326 325 324 322 321 322
318 315 317 323 327 325 325 325 321 321 315 313 319 318 315 319 320 321 315 315 322 318 313 312 312 314 315 315 315 315 315 316 316 316 316 316 316 317 316 316 317 316 317 316 316 316 316 316 316 316 316 316 316 316 316 316 317 317 318 318 319 319 319 318 318 320 320 321 321 321 321 321 321 322 322 323 323 324 324 325 325 326 325 324 324 323 322 324 325 325 324 322 322 323 323 323 323
317 311 315 321 323 326 330 331 328 320 312 318 325 314 312 322 323 321 314 314 319 318 316 314 311 313 315 315 316 315 315 316 316 316 316 316 317 317 316 316 316 316 317 317 316 317 316 317 317 316 316 316 316 316 316 316 316 317 317 317 317 317 317 317 319 320 320 320 320 320 320 320 320 320 321 321 322 323 323 324 325 325 325 325 326 326 325 324 324 324 323 321 322 322 322 323 323
313 307 313 317 318 323 326 327 327 319 315 324 323 311 312 320 327 327 315 311 318 317 315 313 310 313 314 314 315 315 315 315 315 316 316 317 317 317 317 316 317 317 317 317 317 317 317 317 317 317 317 317 317 317 317 317 317 316 316 316 316 316 316 317 318 318 318 319 318 318 318 318 319 319 319 320 320 321 322 323 323 323 324 324 325 325 324 324 323 323 324 324 324 324 323 324 324
308 313 318 317 321 325 324 324 322 316 322 327 317 311 313 313 323 328 315 311 315 316 316 313 311 313 314 314 315 315 315 315 316 316 316 317 317 317 317 317 317 317 317 317 317 317 317 316 316 317 317 317 316 316 316 316 316 316 316 316 316 316 315 315 316 316 316 316 316 315 316 316 316 317 317 318 318 320 320 320 321 321 321 322 322 322 323 324 324 323 323 323 323 324 325 326 325
311 323 323 317 322 325 325 327 318 315 327 323 312 311 313 312 320 321 314 315 315 313 315 315 313 314 313 314 315 314 315 315 315 315 315 316 316 316 317 317 317 317 317 317 316 316 316 316 316 315 316 316 315 315 315 315 315 315 315 315 315 315 315 314 314 314 314 314 314 314 314 314 315 315 315 316 316 317 317 317 318 318 319 319 319 319 320 321 323 324 325 325 324 323 323 323 323
316 321 322 320 321 319 323 329 320 318 323 314 309 311 311 313 318 316 315 319 315 309 309 312 312 312 313 314 314 314 314 314 314 314 314 315 315 315 316 316 316 316 316 316 316 316 316 315 316 315 315 315 315 315 315 315 315 315 315 315 315 314 315 314 314 314 314 314 314 314 314 314 314 314 314 315 315 315 316 316 316 316 316 316 317 317 318 318 320 321 323 324 325 325 323 322 321
316 316 320 322 321 316 319 322 315 315 318 311 308 311 313 316 315 315 317 313 310 307 306 310 311 311 313 313 313 314 314 314 314 314 314 314 314 314 314 315 315 315 315 315 315 315 316 316 315 315 315 315 315 315 315 315 315 315 315 315 315 315 315 315 315 315 315 315 314 314 315 315 314 315 315 315 315 315 315 315 315 315 315 315 315 315 316 317 318 319 319 319 320 321 322 321 320
314 315 316 318 324 324 320 320 319 320 319 312 308 312 320 319 311 313 313 307 307 308 308 310 311 312 313 312 314 314 314 314 314 314 314 313 314 314 314 314 314 314 314 314 315 314 315 315 314 314 315 314 314 314 314 315 314 315 314 315 315 315 315 315 315 315 315 315 315 315 315 315 315 315 315 315 315 315 314 314 314 314 314 314 314 314 314 314 315 316 316 316 315 316 317 318 317
314 312 313 314 321 323 316 313 318 319 316 314 311 315 323 318 310 311 307 304 307 307 307 310 311 312 313 313 314 314 314 314 313 314 314 313 314 313 314 314 314 314 314 314 314 314 314 314 314 314 314 314 314 314 314 315 314 315 315 315 315 314 315 315 315 315 315 315 315 316 316 315 315 315 315 315 315 314 314 314 314 314 314 313 313 313 313 313 313 313 313 313 313 314 314 315 315
314 312 316 317 315 320 316 307 308 311 312 314 313 316 322 316 312 315 309 308 310 307 306 308 310 313 313 313 314 313 314 314 313 314 314 313 314 313 314 314 313 314 314 314 314 314 314 314 314 314 314 314 314 314 315 315 315 315 315 315 315 315 315 315 315 315 315 315 315 316 315 315 315 315 315 315 314 315 314 314 314 314 314 314 313 313 313 312 312 312 312 312 311 311 312 312 312
317 317 317 312 309 316 318 312 314 314 314 317 314 313 319 317 316 319 313 310 312 311 308 307 310 313 313 313 313 313 314 313 313 314 313 314 314 313 314 313 313 314 313 314 314 314 314 314 314 314 314 315 314 315 315 314 315 315 315 315 315 315 315 314 315 315 315 315 315 315 315 315 315 314 315 315 314 314 314 314 314 314 314 313 313 313 313 312 312 312 312 312 311 311 311 311 311
314 317 312 312 315 318 315 313 319 317 313 319 318 311 311 313 319 323 314 312 314 313 312 310 310 312 312 313 313 313 314 313 313 314 313 314 314 313 314 313 313 314 313 314 314 314 314 314 314 314 314 315 314 314 315 314 315 314 314 315 314 315 315 314 315 314 314 315 315 315 315 315 315 314 314 315 314 314 314 314 314 314 314 314 314 314 313 312 312 312 312 312 311 311 311 311 311
309 310 308 314 323 321 315 313 316 315 312 317 319 316 315 316 318 320 314 313 313 312 315 314 310 312 313 313 313 313 314 313 314 314 313 314 314 314 314 314 314 314 314 315 314 314 315 314 314 314 314 314 314 314 315 314 315 314 314 315 314 315 315 314 315 314 314 315 315 315 315 315 315 315 315 314 314 314 314 314 314 314 314 314 314 314 313 313 313 313 313 312 312 311 311 311 311
311 312 311 314 316 314 314 313 313 316 317 319 317 318 325 321 313 314 313 311 310 311 314 312 309 312 313 312 313 313 313 314 314 314 314 314 314 314 314 314 314 314 314 314 314 314 314 314 314 314 314 314 314 314 314 314 314 314 314 314 314 314 314 314 314 314 314 314 314 315 315 315 315 315 314 314 314 314 314 314 314 314 314 314 314 314 314 314 314 313 313 313 312 312 312 312 311
312 314 313 314 314 314 316 314 311 312 315 319 316 314 323 320 308 310 313 308 307 309 310 309 309 312 312 312 313 313 313 314 314 313 314 314 314 314 314 314 314 314 314 314 314 314 314 314 314 314 314 314 314 314 314 314 314 314 314 314 314 314 314 314 314 314 314 314 314 314 314 315 315 314 314 314 314 314 314 314 314 314 314 314 314 314 314 314 314 314 314 313 313 312 312 312 311
Wind_Speed
10 10 10 9 9 6 4 1 1 3 4 2 1 1 2 2 2 2 2 1 1 3 5 6 12 18 9 3 7 5 4 6 5 3 3 8 18 21 18 18 20 20 19 18 17 17 17 13 11 10 9 7 6 4 4 8 10 8 7 7 8 9 11 12 10 11 13 14 15 18 17 16 13 11 10 8 8 7 6 6 6 5 5 4 3 4 5 6 7 8 9 10 10 10 10 10 11
9 10 9 9 9 5 2 2 1 3 5 1 3 2 2 1 2 5 7 5 3 4 8 12 16 16 6 5 7 4 3 4 4 5 8 18 23 21 19 18 19 19 18 18 17 16 17 13 11 10 9 7 5 3 5 8 9 8 8 7 8 9 11 11 10 11 13 13 15 16 15 14 12 10 9 7 7 6 6 6 6 6 6 5 4 5 6 7 8 8 9 9 9 9 10 10 10
8 9 9 8 7 3 0 3 1 1 4 2 4 3 1 2 5 7 8 6 8 14 15 15 12 9 4 5 4 2 3 4 5 10 17 24 24 22 20 18 19 18 17 17 17 15 15 14 11 10 9 7 5 3 5 8 9 8 8 7 8 9 10 10 10 11 12 13 14 15 14 14 12 9 8 7 7 5 5 6 7 7 6 5 5 7 7 8 9 9 9 9 9 9 9 9 9
8 8 8 6 2 2 3 3 1 4 3 3 3 4 3 5 7 6 6 9 17 16 11 9 6 4 2 2 2 1 2 4 8 15 22 25 23 22 20 18 19 18 16 16 16 15 14 14 12 10 9 7 5 3 6 7 8 8 7 7 7 8 9 10 10 11 12 12 13 13 13 13 11 9 7 6 6 5 5 7 8 7 7 7 7 7 8 9 9 9 9 9 9 8 8 8 8
7 7 7 5 1 0 3 3 2 4 4 5 2 5 5 6 6 5 6 15 16 6 4 6 4 3 3 3 2 0 1 4 11 18 23 24 22 21 20 19 19 18 17 16 15 14 14 13 11 10 9 7 4 3 5 7 7 7 7 7 7 8 8 9 9 10 11 11 11 12 11 11 10 8 6 5 5 6 7 8 9 8 8 8 8 8 9 10 9 10 9 9 8 8 8 8 8
6 5 5 3 1 1 3 1 2 2 5 5 3 5 5 6 7 7 8 14 11 2 2 4 4 6 4 3 2 3 5 5 12 19 22 24 23 21 20 19 18 19 17 16 16 15 14 12 11 10 9 7 4 3 5 6 6 6 6 7 7 8 8 8 9 10 10 10 10 10 10 10 10 8 6 6 5 7 9 9 9 9 9 9 8 8 9 9 10 10 9 9 8 8 8 8 8
5 4 2 0 2 2 2 3 4 2 2 3 3 4 5 8 10 9 8 10 7 4 4 3 7 7 3 2 2 6 7 7 14 18 21 23 23 21 20 19 19 19 17 17 16 15 14 12 11 10 10 7 5 3 5 6 5 5 5 6 7 8 8 8 9 9 10 10 8 8 10 10 10 8 6 7 7 8 10 10 9 9 10 9 8 9 10 10 11 10 9 9 8 8 8 8 8
5 3 1 2 2 4 3 2 4 2 0 3 3 4 5 11 13 9 7 6 4 4 5 6 8 4 1 2 3 6 6 9 15 17 21 22 23 21 19 20 19 19 18 17 16 15 14 13 12 10 9 7 4 3 4 5 4 4 4 5 7 8 8 8 9 9 10 9 7 7 9 9 9 7 6 9 8 8 10 10 9 10 10 9 9 10 11 11 11 10 9 9 9 9 9 9 8
4 2 1 2 1 3 2 1 2 2 2 4 3 4 5 13 12 8 6 2 3 5 7 10 7 2 3 2 3 7 6 10 15 18 20 21 22 21 19 19 19 19 18 17 16 15 14 13 12 10 9 6 4 3 3 4 4 4 3 4 5 7 8 8 8 8 8 8 7 7 7 8 8 7 8 10 7 6 9 10 10 9 9 8 9 10 10 11 11 10 9 8 9 9 8 8 8
2 0 1 2 2 2 2 1 1 1 3 4 3 2 6 12 11 7 5 2 4 6 9 10 4 2 5 3 3 6 8 12 16 19 20 20 21 20 19 18 17 17 17 17 15 14 13 12 11 10 8 7 5 4 3 3 3 3 3 4 5 6 7 7 7 7 7 6 6 6 6 5 5 6 7 8 5 5 8 10 9 8 8 7 7 7 7 8 9 9 8 7 8 8 8 8 8
1 2 2 4 3 1 1 2 3 3 5 5 3 2 6 12 10 4 4 4 5 7 10 9 2 6 7 1 4 7 10 15 17 18 19 20 20 20 19 18 17 15 15 15 14 13 12 12 11 10 9 8 7 5 3 2 3 3 3 4 5 5 6 6 6 7 7 7 7 7 6 6 5 5 5 4 3 4 7 8 8 8 6 5 5 4 4 6 6 7 8 8 8 8 8 8 7
1 2 3 4 2 2 3 2 3 5 6 4 1 3 7 12 7 4 5 6 7 7 8 8 3 8 5 1 5 8 12 16 17 17 18 19 19 19 19 18 17 14 13 13 13 13 12 11 11 10 10 9 8 6 4 2 2 3 3 4 4 5 6 6 6 6 6 7 7 7 6 6 6 6 6 5 4 4 6 7 8 7 5 3 4 3 4 6 7 8 9 9 9 9 9 8 7
2 2 4 3 2 2 2 3 2 4 5 3 2 4 8 11 7 8 9 8 8 6 6 8 5 7 4 1 6 10 15 17 18 17 17 18 18 19 19 17 16 15 14 13 13 13 13 12 11 11 10 10 9 7 5 3 2 3 3 3 5 6 6 7 7 7 6 6 6 7 6 5 6 6 6 6 5 5 5 7 7 7 5 3 3 4 6 7 8 9 9 9 9 9 8 7 6
2 3 4 2 1 2 4 2 0 1 3 5 3 5 10 10 7 9 12 8 6 6 6 8 8 7 3 3 5 13 17 17 19 17 16 17 18 19 19 18 16 16 15 13 13 13 13 12 12 11 10 10 9 7 6 4 3 2 2 3 4 5 7 7 7 7 7 7 6 7 6 6 6 5 5 5 5 5 5 7 7 7 6 3 5 7 7 8 9 9 8 8 7 7 6 6 5
2 3 4 3 2 1 3 1 2 4 4 4 4 7 12 10 7 9 12 7 5 6 7 8 10 6 2 5 3 13 19 18 20 17 16 17 17 19 19 19 17 17 16 15 14 13 13 13 13 12 11 11 10 9 7 6 5 4 3 2 3 4 6 6 7 7 7 7 7 6 6 6 5 5 5 5 5 5 5 6 7 6 5 4 6 7 7 7 8 8 7 7 6 5 4 4 3
3 3 4 4 2 0 2 1 3 3 5 4 6 8 10 8 7 9 8 6 6 8 8 9 13 7 3 6 1 10 20 19 20 17 17 18 18 20 19 19 18 18 17 16 16 15 15 14 14 13 12 12 11 11 9 9 7 6 5 3 3 3 4 5 5 5 5 6 6 6 6 5 5 4 4 4 5 5 5 6 6 5 5 5 6 7 7 7 7 7 7 7 6 6 5 4 3
3 3 4 3 2 2 4 4 4 4 5 5 8 12 8 4 6 9 6 5 7 10 9 7 14 12 5 5 2 10 21 20 21 19 18 19 20 21 21 21 20 20 19 18 17 17 16 16 16 15 14 14 13 12 11 10 9 8 7 5 4 4 4 4 4 4 4 4 5 5 5 4 4 4 4 3 4 5 5 6 5 5 4 5 5 5 5 6 7 6 7 6 6 6 6 6 5
3 3 3 1 3 3 5 7 7 4 2 6 10 14 9 4 8 9 6 5 6 10 10 8 11 13 9 7 5 11 21 21 21 22 22 22 23 23 23 23 22 22 21 20 19 18 18 17 17 16 15 15 14 14 12 12 11 10 9 7 6 5 5 4 4 4 3 3 3 4 4 3 3 3 3 3 3 3 5 5 5 4 3 3 4 4 5 5 5 5 5 5 5 6 6 6 5
3 3 3 2 5 4 5 8 9 3 0 7 10 13 10 6 10 11 5 3 6 8 8 8 10 12 10 9 9 12 19 22 22 23 24 25 26 26 26 25 24 24 23 22 21 20 19 18 18 17 17 16 15 15 14 13 13 12 10 9 8 7 6 5 5 4 3 3 2 2 2 2 2 2 2 2 2 2 3 4 4 4 3 3 3 3 3 3 4 3 3 4 4 5 5 6 5
2 3 2 5 6 3 3 5 7 5 1 6 9 9 8 8 11 11 5 3 4 7 10 10 11 12 11 10 10 13 19 21 22 22 23 26 27 27 26 25 24 24 24 23 22 21 21 20 19 19 18 17 17 16 15 15 14 13 12 11 10 9 8 7 6 5 5 4 3 2 1 1 1 1 1 1 1 1 2 3 4 4 3 3 2 2 1 2 2 1 2 2 3 4 4 4 4
2 4 3 5 5 1 2 2 3 6 3 6 9 6 6 8 11 10 7 5 3 10 15 15 13 12 11 12 11 13 19 21 22 22 22 24 25 26 26 25 23 22 23 23 23 22 22 21 20 20 19 19 18 17 16 16 15 15 14 13 12 11 10 9 8 7 6 6 5 4 3 3 2 2 1 2 2 2 3 3 3 4 4 3 2 2 2 1 1 1 2 2 2 3 3 3 3
3 1 2 3 5 2 1 1 1 5 6 7 9 6 6 8 9 10 11 7 5 10 14 15 14 11 10 12 12 15 19 20 21 21 21 22 22 24 24 24 24 23 24 24 23 23 22 22 21 20 20 20 19 18 17 17 17 17 16 15 14 13 12 11 10 9 9 8 7 6 6 5 4 3 3 3 4 4 4 4 4 4 4 4 4 4 4 3 3 3 4 4 3 3 3 3 3
3 1 1 4 3 1 1 0 2 5 9 12 10 7 7 8 6 8 13 14 10 6 6 10 13 12 11 12 13 16 18 19 19 19 19 19 19 20 21 22 23 23 24 23 22 22 22 22 21 21 21 20 20 20 19 19 19 18 18 17 15 15 14 13 12 11 10 10 9 8 7 7 7 6 5 5 5 5 5 6 6 6 6 6 5 6 6 5 5 5 5 5 5 4 4 4 4
3 1 1 4 2 1 2 1 4 6 8 11 10 7 6 7 5 5 13 20 16 9 6 6 10 15 14 13 15 16 16 17 16 16 16 16 16 16 18 20 21 22 23 23 22 22 22 21 21 22 21 21 21 21 21 20 20 20 20 19 17 16 16 15 14 13 12 12 11 11 10 9 9 8 7 7 7 7 7 7 7 7 7 7 7 7 8 7 7 7 7 7 6 6 5 5 5
2 3 3 5 3 2 4 3 4 5 5 7 7 5 4 6 4 4 13 18 16 16 13 8 8 14 16 15 15 16 17 17 16 17 18 18 18 18 19 20 21 22 23 22 21 22 22 21 22 22 22 22 22 22 22 22 22 21 21 21 19 18 18 17 16 16 15 14 14 13 12 11 11 10 9 9 9 9 9 9 9 8 8 9 9 9 9 9 9 9 9 8 8 7 7 6 6
2 5 5 5 4 3 4 4 5 5 5 5 5 2 1 3 3 8 14 15 14 16 16 13 9 12 17 16 16 17 18 18 17 18 19 19 21 21 20 20 21 22 21 21 21 22 21 22 23 23 23 22 23 23 24 23 23 23 22 22 21 20 19 18 18 18 17 16 15 15 14 14 13 12 12 11 11 11 11 11 10 10 10 10 10 10 11 11 11 11 11 10 10 9 8 8 8
6 11 9 6 5 4 3 3 5 5 5 3 4 2 2 2 1 6 8 7 11 15 15 15 12 10 14 17 17 17 18 18 18 18 20 21 22 21 20 21 21 20 19 20 21 21 21 23 23 23 23 23 24 25 25 24 24 24 23 22 22 21 20 20 20 19 19 18 17 17 16 16 15 14 14 14 13 13 13 13 13 12 12 11 11 12 12 13 13 13 13 12 12 11 11 10 9
11 15 9 6 5 4 4 3 3 3 4 1 2 2 3 1 2 8 7 4 6 12 15 16 15 12 12 15 16 17 18 18 20 21 21 21 20 19 19 18 18 17 18 18 18 20 21 22 23 23 24 24 25 26 25 25 25 24 24 24 23 22 22 21 21 21 20 20 19 19 18 17 17 16 16 16 15 15 15 15 15 15 14 13 13 13 14 14 14 15 15 15 14 14 13 12 11
10 9 4 5 6 4 4 3 1 1 2 1 3 0 5 3 7 9 7 5 5 8 14 16 17 15 13 15 16 17 17 18 22 23 22 21 20 19 19 17 17 18 17 17 19 20 20 21 23 23 24 25 25 26 26 26 25 25 25 25 24 24 23 23 23 22 21 21 21 21 20 19 19 18 18 18 17 17 17 17 17 16 16 16 15 15 16 16 16 16 17 17 17 16 15 14 13
6 4 4 2 6 4 4 4 1 1 1 1 3 1 6 7 10 9 6 7 6 7 12 15 17 17 17 17 17 18 18 19 22 22 21 22 22 22 21 19 20 20 19 20 21 20 20 21 22 24 24 25 26 26 26 27 26 26 26 26 26 25 25 25 25 24 23 22 23 23 22 22 21 21 20 20 19 19 19 19 19 19 18 17 17 17 17 17 18 18 18 18 18 18 17 16 15
3 2 3 2 1 3 5 4 1 3 0 1 4 1 6 8 7 6 8 10 9 10 11 12 15 17 18 19 19 20 19 20 20 20 21 22 22 23 23 22 22 22 21 22 21 21 21 22 22 24 25 26 26 27 27 27 27 27 27 27 27 27 26 26 26 26 25 24 24 24 24 24 24 23 23 22 22 21 21 21 21 21 21 19 19 19 19 19 19 19 19 19 20 19 19 18 17
3 2 1 3 2 5 7 3 1 3 1 2 5 1 6 8 6 2 2 4 6 11 12 12 15 17 19 20 21 22 21 20 20 20 21 21 22 23 23 23 23 23 24 23 23 23 23 23 23 24 25 26 27 27 27 28 28 28 28 28 28 28 28 28 28 27 27 27 26 26 26 26 26 25 25 25 24 24 23 22 22 23 23 22 21 21 21 21 20 21 21 21 21 21 20 20 20
4 3 3 1 2 3 4 2 3 2 2 3 3 2 4 4 4 3 2 4 5 6 8 9 12 14 17 19 21 22 22 21 21 21 20 20 20 21 22 23 23 24 25 25 25 25 24 24 25 25 25 25 26 27 27 27 28 29 29 29 29 29 30 30 29 29 28 29 29 28 27 27 27 27 27 26 26 26 25 24 23 24 24 24 24 24 23 23 23 23 22 22 22 22 22 22 21
3 3 2 3 3 2 2 2 4 4 2 1 3 1 6 6 8 9 8 9 11 12 13 12 10 11 13 15 19 20 21 22 22 21 18 18 18 18 20 21 22 24 25 26 27 27 26 26 26 26 26 26 27 27 27 27 28 29 29 30 30 30 30 30 30 30 30 30 30 30 29 29 28 28 28 27 27 27 27 25 24 25 24 24 24 25 24 24 24 25 24 24 24 23 23 23 23
4 2 3 2 2 3 3 3 3 4 3 2 1 3 9 11 13 19 18 12 12 15 17 17 16 16 15 15 17 18 20 22 21 18 16 16 17 17 18 19 21 23 24 26 27 28 28 28 27 27 27 27 28 28 28 29 29 29 30 30 31 31 31 31 31 31 31 31 31 31 31 30 30 29 29 27 27 27 27 27 26 27 27 27 26 26 27 27 26 26 27 26 26 26 24 24 24
8 6 5 4 3 4 5 4 4 2 3 2 4 5 9 10 11 18 21 13 10 16 18 20 20 19 20 20 21 21 22 23 20 17 17 18 19 20 20 20 21 22 23 25 27 28 28 28 28 27 27 27 28 29 29 30 30 30 30 30 31 32 31 31 32 32 32 32 31 31 31 30 30 29 28 27 27 26 26 26 28 29 31 31 29 28 30 31 28 28 29 26 26 27 27 27 26
7 6 4 3 3 2 3 3 5 2 3 3 3 4 8 11 10 16 23 17 13 19 21 23 23 22 24 24 25 26 26 26 24 22 23 23 23 24 24 23 23 23 23 24 25 26 25 25 27 26 25 26 27 28 29 30 30 30 30 30 30 30 30 31 31 31 32 33 33 32 31 30 29 29 29 30 29 28 27 27 28 30 31 32 32 31 31 31 31 32 31 27 28 29 27 27 28
6 6 5 1 1 2 2 2 4 4 1 2 2 4 9 11 10 16 21 14 12 19 20 22 24 25 26 26 28 29 29 29 28 27 26 26 26 25 25 24 24 24 22 23 24 23 23 25 25 24 23 25 26 26 28 29 29 29 29 29 29 29 29 29 29 29 30 31 32 32 32 31 31 30 31 31 30 30 32 32 29 29 31 32 34 35 33 31 33 35 35 31 30 32 30 28 30
6 4 5 2 2 2 3 3 5 5 1 3 4 5 9 11 10 15 16 12 16 20 18 21 23 24 25 25 26 26 27 28 27 26 23 23 23 23 23 23 22 22 21 22 23 23 24 25 24 23 23 24 23 23 25 26 26 27 28 28 28 29 28 28 28 28 28 29 29 30 31 32 33 34 33 33 33 33 33 34 32 32 33 32 32 34 34 34 33 34 36 34 33 36 37 32 30
4 4 5 3 2 1 1 2 5 4 2 1 3 4 8 7 7 9 9 10 14 15 15 17 18 20 21 19 20 20 19 18 16 14 12 12 13 14 16 18 20 21 22 22 22 22 23 24 23 23 23 22 22 22 23 23 25 26 27 28 28 29 30 29 29 29 29 29 29 30 30 31 34 34 34 34 35 36 36 34 33 34 36 34 32 33 34 35 35 34 35 35 36 40 41 37 32
1 3 6 4 3 4 2 1 2 3 3 3 3 4 6 5 6 7 4 4 9 9 9 10 9 11 14 15 15 14 13 11 9 6 5 5 6 8 10 12 15 17 19 20 20 21 21 22 23 23 24 23 22 22 22 22 23 24 25 27 29 30 31 31 32 31 30 30 29 28 28 30 31 33 33 34 36 37 37 36 34 35 36 35 34 35 36 37 38 37 37 39 39 37 36 40 39
1 3 6 6 7 6 2 2 3 4 4 4 5 4 5 5 5 7 4 7 10 9 9 10 10 8 8 11 11 10 10 10 7 3 2 1 3 5 8 9 11 12 14 16 17 18 19 19 20 22 23 23 22 22 22 22 23 23 24 26 27 29 30 31 31 30 29 28 27 27 27 28 29 30 32 34 36 37 37 36 36 35 34 35 36 37 38 38 37 37 39 42 42 35 32 38 43
1 4 5 7 7 8 6 4 4 2 1 3 4 3 4 7 6 7 6 8 10 9 10 12 14 13 10 9 6 3 1 1 3 7 8 6 3 2 4 6 7 8 9 11 12 14 14 14 15 17 18 19 20 21 21 21 21 22 22 23 25 27 28 28 27 27 27 27 28 27 27 28 28 29 30 31 33 35 37 37 36 36 36 37 38 37 37 37 36 36 39 43 43 39 39 42 44
3 3 6 8 8 8 6 6 4 2 2 4 4 4 2 5 6 7 6 7 9 9 8 11 14 15 16 16 14 13 13 12 12 12 12 10 8 5 2 2 3 5 6 7 8 8 9 9 10 12 13 14 15 17 18 18 19 20 20 22 23 25 26 26 25 27 27 28 29 29 29 29 29 29 29 30 31 33 35 36 36 37 38 38 38 37 36 36 38 37 38 41 42 44 46 47 47
3 3 7 7 7 7 5 6 4 1 1 3 5 3 1 5 7 6 6 5 7 7 6 8 12 14 16 18 18 18 17 15 15 14 12 11 11 9 7 5 3 1 2 3 4 5 5 6 6 7 8 9 10 12 13 15 16 17 19 20 22 23 24 24 25 27 27 29 30 30 30 31 31 30 30 30 31 31 32 34 35 36 38 38 39 40 39 38 39 40 40 41 40 42 44 44 46
4 6 7 7 6 6 5 5 4 3 3 4 5 3 1 5 7 5 3 2 5 5 5 7 9 13 16 18 18 17 17 16 15 14 14 14 14 14 13 11 10 8 5 4 2 1 1 2 3 4 5 6 8 9 11 13 14 16 18 20 22 22 22 23 25 26 27 28 29 30 30 30 30 31 31 30 30 31 31 32 33 34 36 37 39 41 41 41 40 40 42 42 42 44 45 46 48
10 7 7 7 6 5 4 3 4 4 2 5 5 3 0 2 6 4 1 2 5 4 1 6 9 14 17 18 18 19 19 19 18 17 17 17 17 17 17 16 15 13 12 11 10 9 8 7 6 5 5 5 5 6 8 10 12 14 17 19 20 21 22 23 24 26 26 27 28 28 29 29 29 29 29 30 30 29 29 30 31 32 34 35 37 39 40 41 42 41 41 41 43 46 48 51 51
7 5 5 5 4 4 4 5 4 2 4 6 4 3 1 2 5 3 3 5 5 6 3 4 9 13 16 17 19 22 24 24 23 23 22 21 20 19 17 16 15 15 14 13 12 12 11 10 10 9 8 8 8 8 8 9 10 13 15 17 18 19 21 22 23 24 24 25 26 26 27 27 27 27 27 28 28 27 27 27 28 30 31 33 34 35 36 37 39 41 42 42 42 44 46 49 49
5 5 6 5 2 3 3 3 1 2 5 4 3 2 2 5 7 6 8 8 6 8 6 2 7 10 12 14 19 23 26 27 27 27 26 25 24 22 20 18 17 15 13 12 11 10 10 10 9 10 10 10 10 10 10 10 11 13 14 16 17 18 19 20 21 22 22 23 24 24 25 25 25 25 26 26 25 24 24 25 26 27 28 29 30 32 33 34 36 38 40 41 41 42 43 45 47
4 5 5 4 3 2 2 4 2 3 4 3 3 2 2 4 6 8 11 9 7 9 7 5 5 5 8 11 17 22 25 27 27 27 27 26 26 25 24 22 21 19 17 15 13 12 11 10 10 10 11 11 11 12 11 11 11 12 14 15 17 18 18 19 20 20 21 22 23 23 23 23 24 24 24 23 22 22 23 24 25 25 26 26 27 29 30 32 35 38 40 41 42 43 44 46 48
3 3 5 5 5 5 4 4 3 3 3 3 4 2 3 2 2 6 8 8 8 8 7 7 4 1 5 10 17 20 23 25 26 26 26 25 24 23 22 22 21 21 19 18 17 15 14 14 14 15 15 16 16 15 15 15 15 14 14 15 16 17 18 19 20 20 20 21 21 22 22 23 23 23 23 22 22 22 23 23 24 25 26 26 27 28 29 30 32 35 38 40 41 43 44 46 48
1 2 5 2 4 5 3 3 5 3 0 2 2 3 4 3 4 5 4 7 7 3 4 7 5 5 10 14 17 20 22 24 24 24 24 23 22 21 20 19 18 18 18 17 16 15 15 15 15 16 16 16 16 16 16 16 16 16 15 15 15 16 16 17 18 19 20 21 21 22 22 23 23 23 23 22 22 22 23 23 24 25 26 27 27 28 29 30 31 33 35 37 39 40 42 44 46
2 2 3 4 4 7 6 2 1 3 1 3 1 3 5 3 4 5 4 1 3 4 3 7 10 11 14 16 18 20 22 23 22 22 21 20 20 19 19 18 16 15 15 15 14 13 12 11 11 12 13 13 13 13 14 14 14 15 15 15 16 16 16 16 17 18 19 21 21 22 23 23 24 24 23 23 23 24 24 25 26 26 27 27 28 28 29 30 31 33 34 36 37 38 39 41 42
4 3 5 4 3 5 5 2 3 4 2 4 1 3 4 1 2 5 5 4 2 2 6 10 14 15 16 17 19 21 22 21 20 20 19 18 18 18 18 17 17 16 15 13 13 12 10 8 8 10 11 12 12 13 13 14 15 16 16 17 17 18 19 19 19 19 19 21 21 22 23 24 25 25 25 25 26 26 26 27 28 28 28 28 29 29 30 30 31 32 33 35 36 36 38 40 40
4 5 4 4 3 2 2 2 2 1 2 4 4 3 3 3 4 4 1 8 7 4 6 9 12 16 16 17 19 20 19 18 18 18 18 17 16 16 15 15 15 15 14 13 12 11 9 7 7 9 11 12 14 14 15 16 17 18 19 20 21 21 22 22 22 22 21 21 21 22 23 25 25 26 27 28 28 28 29 29 30 30 30 30 31 30 31 31 32 33 34 35 35 36 38 39 40
5 4 3 2 3 4 2 2 4 3 2 2 4 3 3 6 6 6 7 9 8 8 8 8 12 17 18 19 19 18 17 17 17 16 16 16 15 14 13 13 12 12 12 13 12 11 9 8 8 9 11 12 14 16 17 18 19 20 21 22 23 24 24 24 23 23 22 22 22 23 24 25 26 26 27 29 30 31 32 32 32 32 32 32 32 33 33 33 33 34 35 36 36 36 38 39 38
3 4 3 1 2 3 2 1 2 4 4 3 2 3 5 6 4 6 7 7 8 10 9 9 14 18 18 18 17 15 16 16 15 15 14 14 14 13 12 11 10 9 10 11 11 11 11 10 11 12 13 14 15 17 18 19 20 20 21 22 23 24 24 24 23 23 23 22 22 23 25 26 27 27 27 29 30 31 31 32 33 34 34 35 35 35 35 35 36 37 37 37 38 38 39 39 38
5 5 6 6 4 4 3 2 1 2 3 4 3 3 7 6 3 5 6 6 8 11 13 13 15 17 17 16 15 14 14 13 12 12 12 12 12 12 12 11 10 10 9 10 11 11 11 12 12 13 14 15 16 17 18 19 19 19 20 20 21 22 23 23 23 23 23 23 23 24 25 27 29 28 29 29 30 30 30 31 33 34 34 35 36 36 37 38 39 40 40 40 40 39 40 40 39
Wind_Direction
281 279 280 289 304 309 319 6 77 352 71 87 316 153 220 189 159 171 189 202 193 228 198 160 149 156 157 174 189 180 142 153 161 139 181 160 146 152 157 161 160 159 156 149 151 147 142 148 149 133 124 116 100 85 47 53 64 71 74 83 91 94 97 98 101 101 104 106 112 123 127 126 127 136 140 142 143 147 148 139 126 124 132 143 148 118 99 100 95 93 91 89 86 82 84 82 82
278 274 278 291 307 308 293 50 78 335 55 93 268 173 242 347 137 193 192 205 203 173 152 141 142 155 151 132 147 119 133 165 155 137 143 146 147 154 160 164 162 161 159 151 155 152 145 147 148 135 132 133 124 106 61 60 63 71 80 86 95 94 96 98 99 101 107 109 113 122 130 131 129 135 146 154 153 154 153 137 124 126 132 137 133 117 104 99 97 95 93 91 89 83 82 83 84
274 271 281 296 312 327 77 51 82 70 81 176 261 242 221 148 195 212 202 198 140 128 129 132 131 140 128 101 113 107 170 188 165 138 143 150 153 158 162 164 162 163 161 154 156 155 148 147 149 141 143 153 143 109 69 64 62 69 79 86 96 98 101 105 102 103 107 109 114 121 127 132 130 126 138 157 162 164 153 131 125 131 138 141 129 116 106 101 99 98 96 93 90 85 82 81 84
266 271 287 296 310 3 69 56 126 124 143 202 254 254 206 181 208 223 198 160 134 123 126 132 114 114 103 71 108 153 175 179 168 152 151 155 158 160 161 163 164 164 163 159 157 155 153 151 152 149 154 162 146 102 70 62 63 70 78 88 98 105 108 109 109 109 110 108 115 124 125 128 130 121 124 145 156 158 149 134 129 137 144 140 125 114 107 102 100 100 98 93 90 87 83 80 81
264 277 287 284 267 84 96 74 107 121 196 186 181 252 227 201 198 199 178 160 150 119 130 140 106 111 102 102 110 143 167 163 164 159 155 155 160 162 160 162 164 163 164 163 160 159 157 154 155 156 159 163 145 103 74 62 64 72 79 93 99 105 109 109 110 110 111 108 113 127 131 132 133 120 119 136 141 136 136 137 136 141 139 128 119 110 106 104 103 101 97 93 89 87 84 80 80
267 276 285 282 109 133 127 115 164 179 220 166 149 244 228 202 175 168 170 170 181 264 174 142 120 134 110 90 61 128 131 148 160 159 157 156 161 164 162 162 163 163 166 165 163 163 160 158 161 164 165 163 148 110 77 64 64 73 84 94 98 102 107 108 107 106 107 110 113 120 127 134 132 119 120 122 117 127 131 137 142 140 128 121 117 108 104 103 101 99 96 93 88 84 78 75 78
259 256 303 111 89 51 115 162 201 208 223 165 159 229 215 179 162 163 166 174 208 239 175 138 132 130 104 89 93 136 128 146 159 158 159 158 160 165 165 161 161 164 168 167 165 165 164 165 168 168 169 164 150 120 77 68 63 72 88 94 100 102 104 107 105 108 109 112 115 111 114 124 132 129 127 114 107 123 131 138 142 134 123 120 118 107 104 101 100 101 98 97 94 85 75 75 76
239 232 29 109 68 31 88 133 210 199 201 232 227 245 204 164 162 168 175 177 192 195 164 146 142 118 126 136 125 155 136 149 160 160 162 161 161 166 167 162 161 165 167 167 167 167 168 170 171 171 169 163 150 120 78 67 57 64 90 99 103 106 104 105 105 110 114 116 115 110 111 119 133 141 135 120 115 123 128 138 140 131 122 117 113 106 103 100 101 101 97 97 96 88 77 76 79
223 225 46 103 110 39 40 44 235 228 285 272 273 265 184 162 168 175 182 189 165 170 160 153 143 79 180 152 131 171 158 155 163 163 164 165 164 166 167 163 163 166 167 168 169 169 171 173 172 173 169 165 156 125 85 61 51 54 80 100 97 103 102 99 100 103 109 111 109 106 109 114 124 136 138 132 134 134 133 141 141 134 128 123 116 109 108 105 103 102 100 100 96 92 83 78 86
207 222 131 84 100 42 358 300 275 256 279 279 280 251 161 166 175 181 178 150 157 152 151 155 134 107 163 163 142 174 174 161 164 166 168 169 167 167 166 162 163 167 167 169 172 171 172 172 173 175 172 170 169 150 109 64 53 47 68 102 85 88 92 90 91 88 89 88 85 83 84 89 95 111 128 138 145 137 138 146 146 147 145 136 125 116 113 108 106 105 102 94 84 83 79 76 89
164 20 113 75 78 81 210 225 297 287 289 309 310 195 167 176 175 185 169 129 148 141 151 162 151 147 143 177 177 178 175 163 167 169 169 171 170 169 166 161 162 168 170 170 172 174 173 173 174 176 177 178 177 168 144 92 63 52 67 97 82 77 77 78 80 77 76 71 67 64 62 58 61 74 91 113 108 105 134 147 151 158 162 143 127 120 106 99 95 90 78 65 58 57 58 60 71
170 7 82 85 125 196 203 169 297 302 315 332 357 180 182 183 181 202 171 141 152 141 162 173 167 157 129 300 194 188 177 165 168 171 172 173 174 171 171 167 163 168 174 176 175 176 177 176 177 176 178 181 182 178 163 135 88 74 79 90 86 82 77 75 75 74 75 74 73 70 67 63 66 74 78 89 92 99 129 145 156 161 166 143 119 104 81 81 78 72 63 56 50 45 44 44 50
177 140 93 92 154 164 163 139 299 335 333 290 193 177 185 188 213 215 168 141 155 143 172 184 180 163 141 216 198 192 180 171 169 171 175 175 177 176 177 175 172 174 178 185 184 181 181 181 181 178 178 181 185 183 175 167 129 102 94 92 91 91 90 86 84 83 83 85 86 85 83 80 80 84 85 91 96 104 123 140 156 159 163 144 102 96 83 81 78 71 64 57 52 48 46 43 43
173 152 111 106 91 109 143 125 315 94 279 263 190 176 184 195 243 215 164 135 164 156 166 184 177 163 165 201 209 194 180 176 174 172 177 178 182 181 181 181 181 182 183 190 191 190 186 185 187 184 184 184 189 190 188 192 174 142 117 100 95 96 99 95 91 88 88 90 90 90 88 86 85 86 86 84 88 95 114 134 150 157 162 129 96 101 94 89 84 77 70 63 57 53 51 51 49
164 135 101 101 54 30 150 135 118 133 243 239 172 186 186 208 251 204 173 147 175 168 159 170 171 170 196 184 206 192 181 179 177 176 178 179 184 184 185 185 186 189 188 194 195 197 194 191 192 192 192 190 194 197 198 202 197 182 163 136 112 104 104 98 92 87 86 87 84 87 86 86 85 86 87 83 85 87 103 128 144 153 150 119 107 107 101 95 90 85 78 69 62 55 51 55 61
140 123 81 83 99 157 157 140 109 119 253 212 168 184 182 222 227 188 181 152 165 169 162 172 180 188 198 186 227 184 183 183 179 180 182 182 185 185 188 188 190 193 193 197 198 200 200 198 198 199 199 198 201 202 205 208 205 200 192 184 160 137 125 113 103 96 89 85 82 83 82 84 83 82 87 86 91 92 102 120 134 140 137 126 116 107 99 92 89 86 78 70 62 54 47 43 47
113 91 66 66 145 195 181 170 165 159 244 221 177 181 172 223 202 179 182 158 167 173 171 181 193 204 222 224 260 185 186 186 181 182 183 186 189 188 190 191 192 196 197 200 200 201 202 202 202 203 205 204 205 205 208 210 212 210 206 204 193 183 166 150 137 123 108 98 90 86 83 85 85 82 81 83 94 100 106 114 125 130 132 128 112 100 92 83 81 77 72 67 61 55 48 39 32
110 95 91 121 169 198 184 178 191 163 215 209 183 183 178 193 186 173 165 159 173 178 186 195 202 214 232 238 229 192 189 187 184 183 185 190 193 194 195 195 197 198 200 200 202 203 203 205 205 206 209 208 210 210 212 214 217 216 215 215 210 208 195 181 167 154 140 125 109 99 91 89 95 94 85 81 92 103 111 117 125 128 131 122 105 98 90 84 79 71 67 59 56 51 45 41 31
105 101 105 209 201 203 185 175 188 167 260 191 179 187 191 198 183 174 177 174 168 178 201 211 215 220 227 224 215 199 191 191 190 187 189 192 196 198 199 200 201 202 203 203 203 204 204 206 208 209 211 213 214 214 215 218 221 222 222 223 222 222 215 208 197 186 179 166 154 133 109 98 105 109 102 99 106 114 126 133 141 145 149 139 125 116 98 92 84 71 60 47 45 39 38 37 28
109 104 115 240 216 210 204 182 190 199 216 173 175 189 199 199 180 180 189 164 173 200 206 210 219 219 217 214 214 203 193 194 195 193 194 196 199 202 203 204 205 206 207 207 207 207 208 208 210 212 213 216 218 218 219 221 225 227 227 229 230 231 228 224 219 214 209 204 204 195 179 152 135 132 129 143 158 173 171 169 172 172 179 178 167 148 118 99 94 65 28 18 19 20 26 28 22
152 126 171 230 193 156 215 196 194 202 198 177 177 175 196 193 180 187 172 136 249 235 215 215 221 217 211 210 212 202 195 197 198 199 199 199 202 204 207 209 209 210 210 210 211 211 212 212 213 214 216 218 221 223 223 226 229 231 232 231 233 236 236 234 231 230 227 224 225 224 222 218 213 209 208 202 198 207 210 213 207 201 207 213 212 206 216 231 247 280 310 320 333 349 0 7 6
137 147 221 184 146 114 204 192 167 188 179 170 167 166 192 185 186 198 177 166 235 239 227 227 228 223 219 219 213 201 199 202 203 205 205 204 206 207 209 211 213 214 215 215 215 216 217 217 218 218 219 220 223 226 227 230 233 236 237 235 234 237 238 239 237 236 236 235 234 235 235 235 235 235 235 225 217 220 222 227 228 226 231 237 240 238 241 249 257 267 278 289 302 316 330 336 333
149 290 247 157 149 72 81 74 147 159 162 166 169 185 195 181 199 213 201 214 230 241 246 237 231 224 225 226 214 207 206 208 211 213 212 210 210 210 210 211 214 217 219 220 219 221 221 221 222 223 224 224 226 228 229 232 235 238 241 240 238 238 241 242 242 242 241 241 241 241 241 242 243 242 243 237 228 226 228 231 235 238 242 248 250 249 252 254 258 263 269 275 283 295 307 311 312
129 157 195 155 154 34 53 57 148 148 163 174 176 184 198 194 206 224 223 232 235 238 262 264 234 220 220 222 218 220 220 219 222 224 221 221 220 218 218 217 219 220 223 225 224 225 225 225 226 227 229 229 230 230 231 233 236 239 241 243 241 240 243 245 247 247 246 246 245 245 244 245 245 244 244 239 233 232 234 236 237 239 244 251 255 257 259 260 261 263 267 271 274 281 290 295 298
83 152 177 137 114 104 75 69 133 142 156 171 173 175 217 219 224 253 242 242 238 236 247 271 247 217 217 219 220 223 224 224 227 227 226 226 226 226 226 225 225 225 227 227 227 228 229 229 229 230 232 232 233 234 235 235 238 240 241 244 244 242 244 246 247 248 248 249 248 248 247 246 247 248 248 243 237 236 240 242 243 244 246 251 254 258 262 263 264 263 264 266 266 271 277 282 286
170 144 150 129 94 95 101 94 111 125 137 153 171 175 262 218 255 269 255 253 244 239 240 247 248 223 217 217 219 221 223 225 226 227 228 227 228 230 230 230 230 229 231 232 231 232 232 232 232 233 234 235 236 237 238 238 239 242 242 245 246 245 245 247 248 248 249 250 249 250 250 250 250 249 250 249 244 242 244 247 249 248 248 251 254 258 260 263 264 265 264 263 262 263 266 271 275
151 126 111 95 78 77 86 113 103 110 120 128 179 212 283 177 228 260 261 266 240 236 235 234 238 232 220 218 219 221 225 228 229 229 228 228 229 231 232 231 233 233 234 235 235 235 235 236 236 236 236 237 238 239 241 241 242 244 246 247 248 249 248 248 249 249 250 251 252 252 251 251 250 250 250 250 249 247 248 250 253 254 253 253 254 256 258 261 262 262 262 261 259 256 258 261 265
134 125 101 44 51 70 40 88 98 96 108 75 152 196 293 110 193 244 254 290 245 230 230 229 232 235 227 220 220 221 227 230 230 231 230 231 232 233 235 235 239 238 237 239 239 239 239 239 241 240 240 240 240 241 243 244 245 246 248 249 250 252 252 251 251 251 252 253 255 254 255 254 252 252 252 252 252 251 251 252 253 255 256 257 258 258 258 260 261 262 262 260 259 257 257 259 261
123 119 113 359 14 35 5 25 40 72 101 78 109 46 295 236 226 244 248 255 253 233 229 230 232 234 231 224 224 225 230 231 231 233 234 236 238 239 241 244 246 246 246 247 245 244 242 243 244 244 244 244 244 244 246 247 249 249 250 252 254 254 254 256 256 255 255 255 257 258 258 257 256 255 253 253 253 253 254 253 254 255 256 258 258 260 261 262 262 262 262 262 262 261 262 264 265
112 76 109 23 11 0 335 357 353 130 92 96 124 251 281 257 241 239 243 237 240 240 229 230 232 235 235 232 232 233 234 235 236 239 240 239 240 241 244 246 246 249 252 250 249 248 247 246 245 246 246 246 247 247 248 249 251 252 253 254 256 257 257 257 259 260 259 256 256 259 260 260 259 258 256 254 253 253 254 254 254 253 253 256 259 261 263 265 267 267 266 265 264 265 265 267 269
96 56 63 49 115 262 309 344 118 141 129 77 117 195 263 273 267 235 244 247 244 245 234 232 234 235 238 238 239 241 240 240 243 245 244 244 244 243 246 247 246 249 251 250 252 253 252 251 248 248 249 249 250 249 249 251 253 254 255 256 257 259 260 259 259 261 262 262 258 257 259 260 260 260 259 257 254 253 254 257 258 256 254 253 257 259 261 263 265 268 269 268 266 266 267 267 269
42 97 324 354 162 258 311 346 59 142 173 59 105 211 268 272 274 188 232 268 257 252 248 247 246 242 242 243 244 247 247 246 247 247 246 247 247 247 248 249 249 250 251 253 255 255 255 254 252 252 251 252 253 252 252 252 254 255 256 257 257 259 261 262 261 261 262 264 264 261 259 260 262 262 262 261 259 255 253 255 258 261 259 256 256 256 258 260 262 265 267 268 268 267 267 268 269
3 101 177 252 173 265 311 342 351 82 136 27 81 218 270 284 260 182 122 352 330 289 275 268 261 254 249 249 250 251 251 249 248 248 247 248 249 251 252 252 253 254 255 256 256 257 257 256 256 256 255 255 256 257 256 254 255 256 257 258 258 259 260 262 263 263 263 264 265 265 263 262 263 264 265 265 265 264 262 260 258 260 262 261 259 257 258 258 259 260 261 263 266 267 265 264 267
312 42 119 214 192 205 277 296 335 32 113 290 31 245 252 274 279 260 261 295 305 296 291 288 282 271 260 255 255 253 253 251 248 247 248 252 254 255 256 257 258 257 258 259 259 259 259 259 259 259 259 259 259 260 260 259 258 258 259 260 260 260 261 262 263 263 264 264 265 267 267 267 266 266 266 265 267 269 269 269 267 268 270 271 268 266 264 262 262 261 259 261 264 268 267 265 265
193 179 146 216 210 206 244 246 293 19 72 215 345 296 266 276 286 281 279 285 288 286 287 287 282 275 268 262 258 254 253 250 245 244 247 251 254 257 260 262 263 262 262 261 261 261 260 260 259 259 259 259 259 260 261 261 260 259 259 259 260 260 260 262 263 263 264 264 265 267 268 268 268 268 267 267 267 266 266 267 270 270 271 271 271 272 268 263 266 267 262 261 264 266 266 267 268
173 174 148 159 172 224 241 242 279 15 99 227 240 250 273 281 288 287 285 285 283 284 284 282 278 273 268 264 261 258 255 252 249 249 249 251 254 257 260 262 263 264 264 263 262 261 260 260 259 257 256 257 257 257 258 258 258 258 257 256 257 257 258 259 261 263 264 265 267 267 267 267 267 268 270 271 269 268 265 263 265 267 265 262 263 270 268 263 267 273 268 264 267 267 264 264 268
139 128 107 138 164 245 254 262 310 25 134 243 248 260 277 276 277 279 282 288 287 280 278 274 271 268 266 265 264 262 260 260 260 260 258 258 260 260 260 259 259 259 260 261 261 260 260 259 258 257 257 256 255 255 255 256 256 256 256 256 257 257 258 259 259 260 261 263 266 268 269 270 271 271 272 273 274 276 275 268 263 261 262 261 263 268 270 268 270 271 265 261 266 265 264 265 265
100 125 120 101 182 243 274 264 319 7 109 254 4 332 282 270 273 272 277 284 276 269 269 270 271 270 269 268 267 266 266 266 266 265 265 265 266 264 261 258 255 255 256 258 259 258 257 255 255 257 258 257 256 256 256 256 257 257 259 261 262 263 263 264 265 265 264 263 264 266 268 270 271 273 273 273 273 274 274 274 271 266 264 264 264 262 262 267 272 267 257 254 264 265 260 262 263
87 111 124 140 215 254 292 300 335 9 40 266 357 344 285 272 271 270 271 268 268 272 270 270 273 273 275 274 273 272 270 268 268 267 268 269 268 264 260 256 253 252 252 253 254 253 252 251 253 256 258 260 261 260 259 260 260 260 262 263 265 266 266 267 268 269 269 267 266 265 265 265 266 268 271 273 273 272 271 273 275 273 271 269 267 263 261 266 271 270 262 257 265 268 258 254 265
92 109 128 173 243 161 234 295 337 8 73 259 325 319 285 290 297 286 280 265 272 281 276 273 274 275 280 282 281 280 278 277 275 274 275 271 263 257 253 249 247 247 246 247 248 249 250 250 252 255 257 261 263 264 265 265 264 262 262 262 263 263 264 265 265 265 264 264 263 263 262 260 259 261 264 266 268 271 272 272 270 268 270 273 273 269 267 268 271 273 270 266 267 267 260 255 266
75 138 137 160 200 175 198 287 335 357 32 29 12 335 294 322 331 299 313 316 300 304 296 294 296 290 290 290 287 285 285 285 285 296 296 259 239 235 236 235 237 240 240 242 243 245 247 249 252 254 256 259 262 264 267 267 265 264 262 260 259 259 260 261 261 262 263 264 265 266 267 264 262 263 263 263 264 266 269 270 268 265 267 271 272 270 267 267 271 272 270 271 269 263 265 263 262
284 209 171 167 170 159 145 40 54 35 8 353 26 18 291 320 325 276 308 346 325 327 334 340 353 346 318 304 297 287 280 275 275 325 39 145 204 218 222 221 225 229 231 235 237 239 242 245 248 252 255 257 260 263 265 267 267 267 265 263 262 262 263 263 266 269 271 273 275 276 276 273 270 268 266 265 266 268 269 269 268 267 266 266 266 267 269 268 271 271 268 271 270 262 269 272 263
194 229 170 142 130 125 126 104 78 88 246 327 44 103 260 316 317 277 315 336 317 329 346 1 15 21 20 10 1 357 333 141 102 78 72 70 78 184 214 214 217 222 229 234 235 237 239 242 246 249 253 255 257 261 264 267 269 270 271 271 271 270 270 272 275 278 279 280 280 279 277 276 274 272 270 269 268 268 270 271 270 268 266 265 265 266 269 271 271 271 268 271 272 266 270 274 270
199 221 127 120 119 127 139 108 87 195 228 331 15 101 216 301 282 277 326 331 318 340 343 354 16 28 36 45 54 66 79 88 85 78 71 67 69 75 102 178 207 221 234 239 237 236 235 237 243 248 253 257 260 264 267 270 273 275 277 277 276 275 276 279 281 281 281 281 280 279 279 278 277 275 273 272 271 270 269 270 270 269 269 271 273 272 271 271 269 269 268 270 270 265 266 270 271
235 191 115 118 121 123 123 95 90 21 23 313 326 49 169 270 276 301 348 327 313 339 324 326 2 23 35 45 55 63 70 74 73 71 68 68 69 69 71 75 80 122 217 228 226 230 235 241 250 257 262 266 268 270 272 274 276 277 278 278 277 278 280 282 282 281 281 281 280 281 281 280 280 279 278 275 274 272 271 270 269 269 270 270 271 273 273 271 269 269 270 271 270 267 268 271 272
173 143 96 82 76 81 80 86 103 50 44 243 275 19 137 265 287 310 2 306 270 289 290 302 353 24 35 42 52 63 68 68 68 67 67 67 69 69 68 68 70 73 77 82 85 77 337 298 298 296 292 288 282 279 278 278 278 278 278 278 279 281 282 282 281 281 281 281 282 283 283 283 284 283 282 280 278 276 274 272 270 269 268 267 265 267 270 272 270 269 269 270 271 270 269 270 270
139 115 75 64 39 37 50 54 86 65 338 251 260 307 200 270 286 271 233 232 214 198 289 326 359 27 35 44 57 68 75 76 75 73 70 68 66 65 64 64 68 71 73 73 70 67 62 53 44 29 11 353 330 315 305 298 292 287 285 284 284 285 285 283 282 281 282 283 283 285 286 286 285 284 283 281 280 278 277 275 273 271 270 268 267 266 267 269 271 272 271 270 271 270 268 267 267
114 90 90 83 6 9 26 0 41 94 255 261 273 288 161 209 263 257 241 257 226 181 145 2 356 17 32 49 66 73 78 81 80 77 73 71 67 63 61 59 60 62 63 64 63 61 57 50 45 37 25 13 359 346 332 317 304 298 296 293 292 292 289 286 285 284 284 284 285 286 286 284 283 282 281 280 280 280 280 277 275 274 272 271 270 269 267 266 267 268 268 270 271 270 269 268 267
74 95 104 93 11 9 6 318 354 198 240 272 286 263 193 230 249 258 261 261 244 222 209 294 333 8 36 58 73 77 79 79 78 76 72 70 68 64 61 58 54 51 46 45 43 38 35 30 26 19 9 2 356 348 338 323 311 305 303 299 297 296 293 291 291 290 289 287 286 285 283 282 281 279 278 278 280 281 278 276 275 273 272 272 272 271 270 267 264 264 264 266 268 268 271 272 269
128 134 128 127 117 90 258 267 289 255 256 295 289 269 251 268 264 245 249 252 248 252 250 256 292 0 42 69 80 80 80 79 76 74 70 67 64 62 61 59 56 52 46 41 36 29 26 26 26 25 20 18 16 12 6 357 344 331 319 310 305 301 298 296 294 293 293 291 289 287 284 282 279 277 277 277 277 276 273 272 272 271 270 270 270 268 268 265 263 261 261 262 263 265 269 270 268
167 156 127 143 153 148 199 215 201 231 269 300 294 277 191 213 265 227 241 276 280 274 258 231 230 54 77 88 88 87 84 81 78 74 68 63 59 57 56 55 53 51 48 46 44 40 39 41 45 44 39 34 30 26 23 20 14 5 352 339 328 317 310 305 301 298 296 293 291 288 284 282 279 276 275 274 273 271 270 270 270 269 267 267 267 266 265 264 261 260 260 261 263 264 265 267 267
229 127 107 154 183 137 133 176 172 170 299 296 268 245 212 213 283 278 284 301 297 282 226 211 188 133 115 103 96 94 88 83 78 71 64 58 54 51 49 47 46 44 42 41 42 43 44 47 48 43 36 31 26 21 18 16 13 10 5 358 349 338 327 318 311 305 300 295 290 285 281 279 277 275 274 273 272 270 269 269 269 268 268 267 266 265 265 264 263 262 261 261 262 262 262 263 264
155 124 167 210 166 113 111 179 44 78 178 270 230 248 291 318 296 316 23 342 312 30 106 150 147 135 120 109 103 96 88 80 71 62 57 52 47 43 39 36 33 30 29 27 27 29 34 40 35 26 21 16 10 7 3 359 356 356 354 352 349 343 336 328 319 310 304 298 291 286 283 281 279 278 278 276 274 273 272 271 270 269 270 270 269 268 267 267 266 265 265 264 264 263 262 262 262
121 175 201 184 120 95 107 144 13 42 233 277 310 228 286 334 255 325 49 133 221 25 93 120 131 134 124 114 106 95 84 75 66 57 52 46 39 33 27 22 16 11 9 8 8 7 9 11 3 356 354 351 348 346 344 341 339 340 340 341 341 338 336 333 325 317 309 302 296 292 287 285 285 285 284 281 279 277 275 274 273 273 274 274 273 273 272 271 270 269 269 269 269 268 267 268 267
111 170 162 119 133 150 96 133 154 126 224 280 310 269 251 202 222 289 179 171 186 160 125 121 131 136 129 117 105 93 82 72 64 56 48 40 32 23 16 9 1 355 352 352 352 350 348 340 328 327 329 331 330 328 330 331 331 332 332 332 332 332 331 330 328 325 317 308 301 295 290 288 289 288 287 286 284 282 279 277 277 277 277 277 277 276 275 274 273 273 273 272 272 271 271 272 272
54 106 114 82 125 157 161 149 159 175 188 256 311 325 258 227 216 226 215 193 178 156 140 142 145 141 132 118 102 87 75 65 58 52 44 39 34 26 20 13 2 352 344 340 338 336 334 325 317 315 316 320 322 322 326 327 327 326 325 326 325 325 324 323 323 324 322 317 308 298 293 290 290 289 288 288 287 287 286 285 285 284 283 282 281 280 279 278 277 276 276 275 274 273 272 274 275
97 119 158 177 75 111 155 104 113 142 154 182 264 298 269 250 208 200 209 196 181 160 145 157 155 143 130 113 93 76 67 62 56 50 44 40 37 30 26 18 8 355 340 334 333 332 330 326 326 325 322 322 323 325 326 326 325 324 322 322 320 319 318 317 318 318 318 319 315 307 300 294 290 290 289 288 288 288 289 290 290 290 290 289 287 286 285 284 282 280 279 278 277 276 275 277 278
157 170 183 175 148 123 150 243 252 122 138 166 174 258 271 258 185 186 201 192 189 167 149 156 157 143 129 107 80 64 63 62 57 53 46 40 35 28 21 11 3 357 346 341 340 335 332 331 336 337 333 331 330 329 329 329 332 332 330 328 323 319 316 314 315 315 314 314 313 310 306 301 297 295 292 290 289 289 289 290 289 289 290 289 288 288 287 286 285 284 283 281 280 278 278 279 280